Regional Weather Roundup
Issued by NWS State College, PA

Home | Current Version | Previous Version | Text Only | Print | Product List | Glossary On
Versions: 1 2 3 4 5 6 7 8 9 10 11 12 13 14 15 16 17 18 19 20 21 22 23 24 25 26 27 28 29 30 31 32 33 34 35 36 37 38 39 40 41 42 43 44 45 46 47 48 49 50
000
ASUS41 KCTP 270010
RWRCTP

REGIONAL WEATHER ROUNDUP
NATIONAL WEATHER SERVICE STATE COLLEGE PA
800 PM EDT THU APR 26 2018

Note: "fair" indicates few or no clouds below 12,000 feet with no
significant weather and/or obstructions to visibility.

* = STATION THAT DOES NOT REPORT PRECIPITATION /E.G. RAIN...SNOW...ETC/
    THUNDER OR FOG.

PAZ002>004-007>009-013>016-020>023-029>032-270100-
WESTERN PENNSYLVANIA

CITY           SKY/WX    TMP DP  RH WIND       PRES   REMARKS
ERIE           FAIR      50  33  52 CALM      29.90R
MEADVILLE      FAIR      49  36  61 N7        29.88R
FRANKLIN*      FAIR      54  34  46 CALM      29.88R
NEW CASTLE     FAIR      59  37  44 VRB3      29.88R
BEAVER COUNTY  CLEAR     55  36  47 NW5       29.88R
BUTLER*        FAIR      57  34  41 CALM      29.88R
PITTSBURGH INT CLOUDY    60  32  34 S3        29.86R
PITTSBURGH     FAIR      57  35  43 S6        29.87R
INDIANA*       CLEAR     57  36  44 CALM      29.91R
LATROBE        CLEAR     57  36  44 CALM      29.89R
WASHINGTON CO* FAIR      58  36  43 NW3       29.90R
$$

PAZ004>006-010>012-017>019-024>028-033>037-041-042-045-046-049>053-270100-
CENTRAL PENNSYLVANIA

CITY           SKY/WX    TMP DP  RH WIND       PRES   REMARKS
BRADFORD       FAIR      51  31  46 NW6       29.86R
DUBOIS         FAIR      55  33  43 NW5       29.85R
CLEARFIELD     FAIR      57  33  40 SW5       29.85S
JOHNSTOWN      FAIR      52  34  50 W5        29.87R
ALTOONA        FAIR      58  35  42 NW3       29.87R
STATE COLLEGE  CLEAR     59  34  38 W7        29.85R
WILLIAMSPORT   FAIR      63  36  36 S3        29.82R
SELINSGROVE    FAIR      58  41  53 CALM      29.84S
FT INDIANTOWN  FAIR      61  40  47 CALM      29.85R
CAPITAL CITY   FAIR      65  38  36 CALM      29.84R
HARRISBURG     FAIR      60  45  57 CALM      29.84R
YORK           FAIR      60  40  47 S3        29.85R
$$

PAZ038>040-043-044-047-048-054-055-060>062-067>071-270100-
EASTERN PENNSYLVANIA

CITY           SKY/WX    TMP DP  RH WIND       PRES   REMARKS
SCRANTON       FAIR      60  40  47 N7        29.84R
MOUNT POCONO   MOCLDY    55  40  56 W3        29.85R
ALLENTOWN      FAIR      61  41  47 SW8       29.84R
QUAKERTOWN*    CLEAR     61  43  51 SW3       29.86R
READING        FAIR      61  42  49 W3        29.84R
LANCASTER      FAIR      61  41  47 CALM      29.85R
COATESVILLE    FAIR      59  41  51 CALM      29.88R
POTTSTOWN      FAIR      57  41  55 NW3       29.86R
BLUE BELL      FAIR      59  43  55 W3        29.87R
DOYLESTOWN     FAIR      62  42  47 W5        29.84R
WILLOW GROVE   NOT AVBL
NORTH PHILA    FAIR      63  43  48 W7        29.86R
PHILADELPHIA   FAIR      65  40  39 W9        29.85R
$$



USA.gov is the U.S. government's official web portal to all federal, state and local government web resources and services.